This is the latest recevied weather packets stored in our database for station/object LU8FJH-13. If no packets are shown the sender has not sent any weather packets the latest 10 day(s).
| Time | Temp. | Humidity | Pressure | Rain* | Wind** | Luminosity | Snow |
|---|---|---|---|---|---|---|---|
| 1777832697 | 21.67° C | 24% | 1016.6 hPa | 0 mm | - | - | - |
| 1777832157 | 21.67° C | 23% | 1016.9 hPa | 0 mm | - | - | - |
| 1777831617 | 21.11° C | 23% | 1016.9 hPa | 0 mm | - | - | - |
| 1777831077 | 21.11° C | 24% | 1017 hPa | 0 mm | - | - | - |
| 1777830537 | 21.11° C | 25% | 1017.2 hPa | 0 mm | - | - | - |
| 1777829997 | 21.11° C | 24% | 1017.4 hPa | 0 mm | - | - | - |
| 1777829457 | 21.11° C | 27% | 1017.5 hPa | 0 mm | - | - | - |
| 1777828917 | 20.56° C | 28% | 1017.5 hPa | 0 mm | - | - | - |
| 1777828377 | 20.56° C | 29% | 1017.6 hPa | 0 mm | - | - | - |
| 1777827837 | 20.56° C | 30% | 1017.8 hPa | 0 mm | - | - | - |
| 1777827297 | 20° C | 30% | 1018 hPa | 0 mm | - | - | - |
| 1777826757 | 20° C | 30% | 1018.2 hPa | 0 mm | - | - | - |
| 1777826217 | 20° C | 30% | 1018.7 hPa | 0 mm | - | - | - |
| 1777825677 | 19.44° C | 31% | 1018.8 hPa | 0 mm | - | - | - |
| 1777825137 | 20.56° C | 31% | 1018.7 hPa | 0 mm | - | - | - |
| 1777824597 | 20° C | 31% | 1018.9 hPa | 0 mm | - | - | - |
| 1777824057 | 19.44° C | 32% | 1019 hPa | 0 mm | - | - | - |
| 1777823517 | 19.44° C | 32% | 1019.7 hPa | 0 mm | - | - | - |
| 1777822977 | 18.89° C | 33% | 1020 hPa | 0 mm | - | - | - |
| 1777822437 | 18.33° C | 34% | 1020.2 hPa | 0 mm | - | - | - |
| 1777821897 | 18.33° C | 34% | 1020.5 hPa | 0 mm | - | - | - |
| 1777821357 | 18.33° C | 33% | 1020.5 hPa | 0 mm | - | - | - |
| 1777820817 | 18.33° C | 34% | 1020.9 hPa | 0 mm | - | - | - |
| 1777820277 | 17.78° C | 33% | 1021.2 hPa | 0 mm | - | - | - |
| 1777819737 | 17.78° C | 33% | 1021.3 hPa | 0 mm | - | - | - |
* Rain latest hour (hover to see other rain measurements)
** Current wind speed in m/s (hover to see current wind gust speed)